Location: Heathcote
(40.9845°N, 73.7746°W)
Time: 04:30:58
(UTC+00:00)

Okean O Rocket - Pass Details

Date: 29 October 2020
Orbit: 622 x 645 km, 98.2° (Epoch: 23 November)

Event Time Altitude Azimuth Distance (km) Brightness Sun altitude
Rises 22:12:42 0° 161° (SSE) 2,907 5.0 -4.2°
Reaches altitude 10° 22:14:54 10° 160° (SSE) 2,000 4.1 -4.6°
Maximum altitude 22:19:14 75° 76° (ENE) 653 1.6 -5.4°
Drops below altitude 10° 22:23:35 10° 351° (N) 2,005 4.2 -6.2°
Sets 22:25:47 0° 349° (N) 2,914 5.0 -6.6°
